Wind_Speed
12 14 15 16 17 18 19 21 21 21 21 21 21 21 21 20 19 18 16 15 14 13 12 11 9 8 6 6 7 8 9 11 13 14 15 18 19 21 22 23 23 24 24
13 14 15 17 18 19 20 21 22 22 22 22 22 22 21 21 20 19 18 16 15 14 13 12 10 9 8 8 8 9 10 11 12 14 15 17 19 21 22 23 23 25 25
13 14 16 17 19 20 21 22 23 24 24 23 23 23 22 21 21 20 19 17 16 15 14 13 11 11 10 9 9 10 10 12 13 14 15 17 18 20 21 23 23 24 26
14 15 17 18 20 21 22 23 24 25 25 25 25 25 24 22 22 21 20 19 18 17 16 15 13 13 12 12 12 12 12 12 13 14 16 17 19 21 22 23 24 24 26
15 16 18 19 21 22 23 24 25 26 26 27 27 26 26 24 23 23 22 21 20 19 18 17 16 15 14 14 13 13 14 14 14 15 17 18 19 21 21 23 24 25 26
16 18 19 21 22 23 24 25 26 27 28 28 28 28 27 26 25 25 24 24 22 21 20 19 19 18 17 17 16 16 16 17 17 18 18 19 20 21 22 22 24 25 26
18 19 21 22 23 25 26 27 28 28 29 29 30 30 30 29 27 26 26 26 25 24 23 22 21 20 20 20 20 19 19 19 20 20 20 21 21 22 22 23 24 25 25
20 21 22 24 25 27 28 29 30 30 31 32 32 32 32 32 31 29 29 28 28 28 27 26 25 24 23 23 23 23 22 22 22 22 23 23 22 23 23 24 24 25 25
23 24 25 26 27 28 29 30 31 32 33 34 34 35 34 33 33 32 32 31 31 31 31 30 29 28 27 26 26 25 25 25 25 25 25 25 25 25 25 25 26 26 26
25 26 27 28 30 31 32 33 34 35 36 37 37 37 36 36 35 35 35 34 34 33 33 33 33 31 31 30 30 29 28 28 28 27 27 27 27 27 27 27 27 27 27
27 28 29 31 32 34 35 36 38 39 39 40 40 40 40 40 39 38 38 37 36 36 36 36 36 35 34 34 33 32 32 32 31 30 29 29 29 29 29 29 29 28 28
30 32 33 34 36 37 38 40 41 42 42 42 43 43 43 43 42 41 41 41 39 39 39 39 38 39 39 37 36 36 35 35 35 34 33 32 31 30 30 30 30 29 29
34 35 36 38 39 41 42 43 44 45 45 46 46 46 45 45 44 43 43 43 43 42 42 42 42 42 42 42 40 39 39 38 37 37 36 35 34 33 32 32 32 31 31
37 38 40 41 43 44 46 47 47 48 48 49 49 49 48 47 47 46 45 45 45 45 45 45 45 45 44 44 44 43 42 41 40 40 39 38 37 36 35 34 34 33 33
41 42 43 45 46 47 49 50 50 51 52 52 52 51 51 50 49 49 48 47 47 48 47 48 48 48 48 47 46 46 46 45 43 42 42 41 39 38 37 36 36 36 35
44 45 47 48 50 51 52 52 53 53 54 55 55 54 54 53 51 50 50 50 49 50 49 49 49 50 50 50 49 48 48 47 46 46 45 44 43 41 40 38 37 37 36
47 49 51 52 53 54 55 56 56 56 56 56 56 55 55 55 53 52 52 52 51 51 51 50 51 51 51 51 51 50 49 48 48 47 46 46 45 44 42 41 39 38 37
51 53 54 55 57 58 58 59 59 59 58 57 57 56 57 56 55 54 53 53 52 51 51 51 51 50 50 51 51 51 50 49 49 48 47 47 46 46 44 43 41 40 39
55 56 57 59 60 61 61 61 61 62 61 60 58 58 58 57 56 55 54 53 52 51 50 50 50 50 49 49 49 49 50 50 50 49 48 48 47 47 46 45 43 42 41
57 59 60 62 63 63 63 63 64 64 63 62 60 59 59 57 56 54 54 53 52 50 49 49 49 48 48 48 47 48 49 49 49 49 49 49 48 48 47 46 45 44 42
60 61 63 64 64 64 64 65 65 65 63 62 61 60 59 57 55 54 53 52 51 50 49 48 48 47 47 47 47 47 48 49 49 48 49 49 48 47 47 47 47 45 44
62 64 65 65 65 66 65 66 65 65 63 62 60 59 58 57 55 54 53 52 51 49 48 47 46 46 46 46 47 47 47 47 47 48 48 48 49 48 47 47 47 46 44
65 66 66 66 66 66 66 66 66 65 63 61 60 59 57 56 55 54 52 50 49 48 46 45 45 44 44 44 45 45 45 46 46 47 47 46 47 47 46 47 47 46 45
66 67 67 67 67 67 66 66 66 64 63 61 60 59 57 56 54 53 51 50 48 46 45 44 43 43 43 42 44 44 44 44 45 45 47 46 45 45 45 45 46 46 46
67 68 68 68 68 67 67 67 65 64 62 61 60 58 57 54 52 51 49 48 46 45 42 41 41 41 41 41 41 41 41 43 44 45 46 46 45 45 45 45 45 45 45
69 69 69 69 68 67 67 66 65 63 61 60 58 57 55 52 51 48 47 45 44 42 40 39 39 38 39 38 39 40 40 41 43 44 45 46 45 44 44 44 44 43 44
Wind_Direction
345 345 347 348 348 348 348 348 348 348 347 346 345 343 342 343 344 344 343 345 348 348 345 342 335 324 308 289 273 255 245 235 231 231 231 229 229 229 228 228 229 230 230
341 342 343 345 345 345 345 345 345 345 345 344 343 341 339 338 338 339 338 337 337 337 336 333 327 320 307 291 275 260 249 241 235 233 235 235 231 230 231 232 233 234 235
338 339 339 340 341 341 341 342 342 342 341 340 339 337 336 334 333 331 332 332 330 328 327 324 318 312 302 292 282 267 256 245 240 238 239 237 234 235 237 236 237 237 237
334 335 335 336 337 337 337 338 337 337 336 335 334 332 331 329 327 326 324 324 323 320 319 316 313 306 298 291 282 272 261 250 244 243 242 241 239 239 240 240 239 238 239
331 332 333 333 334 335 335 335 334 333 332 331 329 327 325 322 320 319 318 316 315 314 311 308 305 302 296 290 283 275 266 258 251 248 247 244 243 243 243 242 242 241 241
328 329 329 331 332 332 332 332 331 331 329 328 326 324 322 318 315 314 312 311 309 306 305 301 298 295 291 288 284 278 271 262 257 253 251 247 245 246 245 245 244 243 243
321 322 324 325 326 327 328 327 327 326 326 324 322 320 318 315 311 308 307 306 304 302 300 297 294 291 287 284 281 276 271 267 262 258 256 252 250 246 246 246 246 245 244
317 318 319 321 322 323 323 323 322 322 321 320 318 316 313 311 307 303 301 301 300 298 296 293 291 287 284 281 277 274 271 268 265 261 259 257 255 251 248 247 247 246 244
315 316 317 318 318 319 319 319 319 319 319 317 315 313 311 308 304 299 296 295 294 293 291 289 287 284 281 278 275 272 269 266 264 261 260 257 254 253 252 250 249 249 248
312 314 315 316 317 317 317 318 318 318 316 315 314 312 309 306 301 295 293 291 289 288 287 285 283 281 279 276 273 271 268 265 263 261 259 259 256 254 253 251 250 250 249
310 311 312 313 314 315 316 316 317 316 315 314 313 312 310 307 302 295 290 288 286 284 283 281 280 278 275 273 272 269 267 264 262 260 259 258 257 255 253 251 250 249 248
308 309 310 311 312 313 314 314 315 314 313 312 311 310 309 306 303 296 290 285 284 281 280 279 278 276 273 270 268 267 265 263 261 259 257 256 255 254 253 252 249 249 248
306 307 308 309 310 312 312 313 313 312 311 310 310 309 307 304 301 296 289 284 282 279 277 276 275 273 271 269 266 264 263 262 260 257 256 255 254 252 251 250 250 249 248
304 305 307 308 309 310 311 311 311 310 309 309 308 306 305 303 299 295 290 284 280 277 276 274 273 271 269 266 264 262 261 260 259 257 255 253 252 251 250 250 249 249 249
303 304 306 307 308 309 310 310 309 308 308 308 307 305 304 302 298 295 290 284 280 277 274 272 271 269 268 265 262 260 259 259 258 256 254 252 251 250 250 250 249 248 248
302 304 305 307 307 308 308 308 308 307 306 306 305 304 303 301 298 294 290 285 281 277 273 271 269 269 267 264 261 258 258 257 256 255 253 252 250 249 249 248 248 248 248
302 304 305 306 307 307 307 307 307 306 305 304 303 302 302 301 298 295 290 286 282 277 273 270 269 268 266 263 260 257 256 255 255 254 252 250 249 248 248 247 246 246 246
302 303 304 305 306 306 307 306 306 306 305 304 302 301 300 300 298 295 291 287 282 278 273 270 269 267 265 262 259 256 255 253 252 251 251 249 248 247 246 245 245 245 245
301 302 303 304 305 306 306 306 305 306 305 304 302 300 300 299 298 295 293 289 284 279 273 271 269 267 265 261 258 255 254 252 249 249 249 247 246 246 245 243 243 243 243
300 302 303 303 304 305 305 305 305 305 304 303 302 300 299 298 297 295 293 290 285 280 274 271 269 267 264 259 256 254 253 251 249 248 246 245 244 243 242 241 241 241 241
300 301 302 303 304 304 305 305 305 305 304 303 302 300 299 298 297 295 293 289 285 281 275 271 268 265 263 257 255 254 252 251 248 245 243 242 241 241 241 240 239 240 240
300 301 302 303 303 304 304 305 305 305 304 303 302 301 299 298 296 295 292 289 285 281 276 272 269 265 262 258 254 253 251 249 246 244 242 240 239 238 238 239 238 238 239
300 301 302 302 302 303 304 305 305 304 303 302 302 301 300 298 296 294 293 289 286 282 276 272 269 264 260 257 253 252 250 248 245 242 239 237 236 236 236 237 237 237 237
300 301 301 302 302 303 303 304 304 303 303 302 301 301 300 298 296 293 292 289 285 282 276 272 269 265 259 256 253 250 247 244 241 239 237 235 234 234 234 234 235 236 235
300 301 301 301 302 302 302 303 303 302 302 301 301 301 299 297 295 293 291 288 285 281 277 274 269 264 258 255 251 248 245 241 238 235 233 232 233 233 233 232 232 234 234
299 300 301 301 301 302 302 302 302 302 301 301 301 300 299 297 295 293 291 289 286 280 277 273 268 262 257 254 251 247 243 239 235 233 232 232 233 232 232 231 231 233 233
Height
5850 5849 5847 5845 5843 5841 5839 5836 5834 5831 5828 5826 5823 5820 5818 5815 5813 5811 5809 5807 5805 5803 5802 5800 5799 5799 5798 5798 5799 5799 5800 5802 5803 5805 5808 5810 5813 5816 5819 5822 5825 5828 5832
5848 5847 5845 5843 5841 5839 5837 5834 5832 5829 5826 5823 5821 5818 5815 5813 5811 5809 5807 5805 5804 5802 5801 5800 5799 5798 5797 5797 5797 5798 5799 5800 5801 5803 5805 5807 5809 5812 5815 5818 5820 5823 5826
5846 5845 5843 5841 5839 5837 5834 5832 5829 5826 5824 5821 5818 5816 5813 5811 5809 5807 5805 5804 5802 5801 5799 5798 5797 5797 5796 5796 5795 5796 5796 5797 5799 5800 5802 5803 5806 5808 5810 5813 5815 5818 5820
5844 5842 5841 5838 5836 5834 5831 5828 5826 5823 5820 5818 5815 5812 5810 5808 5806 5804 5803 5801 5800 5798 5797 5796 5795 5794 5794 5793 5793 5793 5794 5794 5796 5797 5798 5800 5802 5804 5806 5808 5810 5812 5815
5841 5840 5838 5835 5833 5830 5828 5825 5822 5819 5816 5813 5810 5808 5806 5804 5802 5800 5799 5797 5796 5795 5794 5793 5792 5791 5791 5790 5790 5790 5790 5791 5792 5793 5794 5795 5797 5799 5801 5802 5804 5806 5808
5838 5837 5834 5832 5829 5827 5824 5821 5818 5815 5812 5808 5805 5803 5800 5798 5797 5795 5794 5793 5792 5791 5790 5789 5788 5788 5787 5786 5786 5786 5786 5787 5788 5788 5789 5791 5792 5794 5795 5797 5798 5800 5802
5835 5833 5830 5828 5825 5823 5820 5816 5813 5810 5807 5803 5800 5797 5794 5792 5790 5789 5787 5786 5786 5785 5784 5784 5783 5783 5782 5781 5781 5781 5781 5781 5782 5783 5784 5785 5787 5788 5789 5791 5792 5794 5796
5830 5828 5826 5823 5821 5818 5814 5811 5808 5804 5801 5797 5793 5790 5787 5785 5782 5781 5779 5778 5778 5778 5777 5777 5776 5776 5776 5775 5775 5775 5775 5775 5776 5777 5778 5779 5780 5781 5783 5784 5785 5787 5789
5825 5823 5820 5818 5815 5812 5808 5805 5801 5797 5793 5789 5785 5781 5778 5775 5773 5771 5770 5769 5769 5769 5768 5768 5768 5768 5767 5767 5768 5768 5768 5768 5768 5769 5770 5771 5773 5774 5775 5777 5779 5780 5782
5819 5817 5814 5811 5808 5805 5801 5797 5793 5789 5784 5779 5775 5771 5768 5765 5762 5760 5758 5758 5758 5759 5759 5758 5758 5758 5758 5758 5758 5759 5759 5760 5760 5761 5762 5763 5765 5766 5767 5769 5771 5772 5774
5813 5810 5807 5804 5800 5796 5792 5788 5784 5779 5774 5769 5765 5761 5757 5753 5750 5747 5745 5745 5745 5746 5746 5747 5747 5747 5747 5747 5747 5748 5749 5750 5751 5752 5753 5755 5756 5758 5759 5760 5762 5764 5766
5805 5802 5799 5795 5791 5787 5783 5778 5773 5768 5763 5758 5753 5749 5744 5740 5736 5733 5731 5730 5730 5732 5733 5733 5734 5734 5734 5735 5736 5737 5738 5739 5740 5742 5743 5745 5747 5748 5749 5751 5753 5755 5757
5797 5793 5790 5786 5782 5777 5772 5767 5762 5756 5750 5745 5740 5736 5732 5727 5723 5719 5717 5716 5715 5716 5718 5719 5719 5720 5720 5721 5723 5724 5725 5726 5728 5730 5732 5734 5736 5737 5739 5741 5743 5745 5747
5787 5784 5780 5776 5771 5766 5761 5755 5749 5743 5737 5732 5727 5722 5718 5713 5709 5705 5702 5701 5700 5700 5701 5703 5704 5704 5705 5706 5708 5710 5711 5713 5715 5717 5719 5722 5724 5726 5728 5730 5732 5734 5737
5776 5773 5768 5764 5759 5754 5748 5742 5736 5730 5723 5717 5712 5707 5702 5698 5694 5689 5686 5685 5684 5684 5684 5685 5686 5687 5688 5690 5692 5694 5696 5698 5701 5703 5705 5708 5711 5713 5716 5718 5721 5723 5726
5764 5760 5756 5751 5745 5740 5734 5729 5722 5715 5709 5702 5696 5691 5686 5681 5677 5673 5670 5668 5666 5665 5665 5666 5668 5669 5671 5673 5675 5678 5680 5682 5685 5688 5691 5694 5696 5699 5703 5706 5709 5711 5715
5751 5747 5742 5736 5731 5725 5719 5713 5707 5702 5694 5687 5681 5675 5670 5665 5660 5656 5652 5650 5648 5646 5646 5647 5648 5649 5651 5653 5656 5659 5662 5665 5668 5671 5675 5678 5682 5685 5689 5692 5696 5699 5702
5737 5732 5727 5721 5715 5709 5703 5696 5690 5684 5678 5672 5666 5659 5654 5648 5643 5639 5635 5632 5630 5628 5627 5627 5628 5629 5631 5633 5636 5639 5643 5647 5650 5654 5658 5663 5666 5670 5674 5678 5682 5686 5689
5722 5717 5711 5705 5699 5692 5686 5679 5673 5667 5660 5654 5649 5643 5637 5631 5626 5621 5616 5613 5611 5609 5608 5608 5608 5609 5611 5614 5617 5620 5624 5628 5632 5636 5641 5646 5650 5655 5659 5664 5668 5672 5675
5707 5701 5694 5688 5682 5675 5669 5662 5656 5649 5643 5636 5630 5625 5619 5614 5609 5604 5599 5595 5592 5590 5590 5589 5589 5590 5592 5595 5598 5601 5605 5609 5614 5618 5623 5628 5633 5638 5643 5649 5653 5657 5662
5690 5684 5678 5671 5665 5658 5652 5645 5638 5631 5625 5618 5612 5606 5600 5595 5591 5586 5582 5578 5575 5572 5571 5570 5571 5572 5573 5576 5579 5582 5586 5591 5595 5600 5604 5610 5616 5621 5627 5633 5638 5642 5647
5672 5666 5660 5653 5647 5640 5634 5627 5620 5613 5607 5600 5595 5589 5583 5577 5572 5568 5564 5560 5557 5554 5553 5552 5552 5553 5555 5557 5561 5564 5568 5572 5577 5582 5586 5592 5599 5605 5611 5617 5623 5628 5633
5655 5648 5642 5635 5629 5622 5616 5609 5602 5595 5589 5582 5576 5571 5565 5560 5555 5550 5546 5542 5540 5537 5536 5535 5535 5536 5537 5539 5542 5545 5550 5554 5559 5564 5569 5575 5582 5588 5595 5602 5608 5614 5619
5636 5630 5623 5617 5610 5604 5598 5591 5584 5577 5571 5565 5559 5553 5547 5542 5538 5533 5529 5525 5523 5521 5520 5519 5518 5519 5521 5522 5525 5528 5532 5537 5541 5547 5553 5559 5566 5573 5579 5586 5593 5599 5605
5618 5612 5605 5598 5592 5586 5579 5573 5566 5560 5553 5547 5541 5536 5530 5525 5521 5516 5512 5509 5507 5505 5504 5503 5503 5503 5505 5507 5509 5513 5517 5521 5526 5532 5537 5544 5551 5557 5564 5571 5578 5585 5591
5599 5593 5586 5580 5573 5567 5560 5554 5548 5542 5536 5530 5524 5519 5513 5509 5504 5500 5497 5494 5491 5490 5489 5489 5489 5489 5490 5492 5495 5498 5502 5507 5511 5517 5523 5529 5536 5543 5550 5557 5565 5571 5577